Location: Eexterzandvoort
(53.0303°N, 6.7884°E)
Time: 23:36:48
(UTC+00:00)

GP-B - Pass Details

Date: 19 May 2025
Orbit: 619 x 624 km, 89.8° (Epoch: 22 June)

Event Time Altitude Azimuth Distance (km) Brightness Sun altitude
Rises 23:08:15 0° 3° (N) 2,920 8.2 -16.8°
Reaches altitude 10° 23:10:30 10° 7° (N) 2,007 6.9 -16.9°
Maximum altitude 23:14:53 63° 89° (E) 702 3.3 -16.9°
Enters shadow 23:16:47 32° 159° (SSE) 1,081 3.8 -16.9°
